Time,TemperatureF,DewpointF,PressureIn,WindDirection,WindDirectionDegrees,WindSpeedMPH,WindSpeedGustMPH,Humidity,HourlyPrecipIn,Conditions,Clouds,dailyrainin,SoftwareType,DateUTC
2013-12-02 00:01:00,42.1,37.0,30.20,East,90,0.2,0.7,82,0.00,,,0.00,WUHU216HW,2013-12-02 08:01:00,
2013-12-02 00:06:00,41.9,36.8,30.20,East,90,0.0,0.4,82,0.00,,,0.00,WUHU216HW,2013-12-02 08:06:00,
2013-12-02 00:11:00,41.9,36.8,30.20,WSW,248,0.2,0.4,82,0.00,,,0.00,WUHU216HW,2013-12-02 08:11:00,
2013-12-02 00:16:00,41.9,36.8,30.19,WSW,248,0.0,0.4,82,0.00,,,0.00,WUHU216HW,2013-12-02 08:16:00,
2013-12-02 00:21:00,41.8,36.9,30.19,North,0,0.0,0.0,83,0.00,,,0.00,WUHU216HW,2013-12-02 08:21:00,
2013-12-02 00:26:00,41.8,36.9,30.19,North,0,0.0,0.0,83,0.00,,,0.00,WUHU216HW,2013-12-02 08:26:00,
2013-12-02 00:31:00,41.8,36.6,30.19,NE,45,0.4,0.4,82,0.00,,,0.00,WUHU216HW,2013-12-02 08:31:00,
2013-12-02 00:36:00,41.6,36.7,30.18,East,90,0.0,0.4,83,0.00,,,0.00,WUHU216HW,2013-12-02 08:36:00,
2013-12-02 00:41:00,41.6,36.5,30.18,East,90,0.0,0.2,82,0.00,,,0.00,WUHU216HW,2013-12-02 08:41:00,
2013-12-02 00:46:00,41.4,36.3,30.18,ENE,68,0.0,0.0,82,0.00,,,0.00,WUHU216HW,2013-12-02 08:46:00,
2013-12-02 00:51:00,41.4,36.3,30.18,East,90,0.7,0.7,82,0.00,,,0.00,WUHU216HW,2013-12-02 08:51:00,
2013-12-02 00:56:00,41.4,36.5,30.18,East,90,0.0,0.9,83,0.00,,,0.00,WUHU216HW,2013-12-02 08:56:00,
2013-12-02 01:01:00,41.2,36.1,30.18,South,180,0.0,0.9,82,0.00,,,0.00,WUHU216HW,2013-12-02 09:01:00,
2013-12-02 01:06:00,41.2,36.4,30.18,South,180,0.0,0.2,83,0.00,,,0.00,WUHU216HW,2013-12-02 09:06:00,
2013-12-02 01:11:00,41.2,36.4,30.18,South,180,0.0,0.2,83,0.00,,,0.00,WUHU216HW,2013-12-02 09:11:00,
2013-12-02 01:16:00,41.0,36.2,30.18,NNE,23,0.0,0.0,83,0.00,,,0.00,WUHU216HW,2013-12-02 09:16:00,
2013-12-02 01:21:00,41.0,36.2,30.18,NNE,23,0.0,0.4,83,0.00,,,0.00,WUHU216HW,2013-12-02 09:21:00,
2013-12-02 01:26:00,40.9,36.0,30.18,ENE,68,0.0,0.4,83,0.00,,,0.00,WUHU216HW,2013-12-02 09:26:00,
2013-12-02 01:31:00,40.7,35.8,30.18,ENE,68,0.0,0.2,83,0.00,,,0.00,WUHU216HW,2013-12-02 09:31:00,
2013-12-02 01:36:00,40.7,35.8,30.18,ENE,68,0.0,0.0,83,0.00,,,0.00,WUHU216HW,2013-12-02 09:36:00,
2013-12-02 01:41:00,40.7,35.8,30.18,ENE,68,0.0,0.0,83,0.00,,,0.00,WUHU216HW,2013-12-02 09:41:00,
2013-12-02 01:46:00,40.5,35.7,30.18,NE,45,0.2,0.2,83,0.00,,,0.00,WUHU216HW,2013-12-02 09:46:00,
2013-12-02 01:51:00,40.3,35.6,30.18,NE,45,0.0,0.2,83,0.00,,,0.00,WUHU216HW,2013-12-02 09:51:00,
2013-12-02 01:56:00,40.3,35.8,30.18,NE,45,0.0,0.2,84,0.00,,,0.00,WUHU216HW,2013-12-02 09:56:00,
2013-12-02 02:01:00,40.3,35.8,30.18,NE,45,0.0,0.0,84,0.00,,,0.00,WUHU216HW,2013-12-02 10:01:00,
2013-12-02 02:06:00,40.3,35.8,30.18,WNW,293,0.0,0.0,84,0.00,,,0.00,WUHU216HW,2013-12-02 10:06:00,
2013-12-02 02:11:00,40.1,35.6,30.18,WNW,293,0.0,0.0,84,0.00,,,0.00,WUHU216HW,2013-12-02 10:11:00,
2013-12-02 02:16:00,40.1,35.6,30.18,NNE,23,0.2,0.2,84,0.00,,,0.00,WUHU216HW,2013-12-02 10:16:00,
2013-12-02 02:21:00,40.1,35.6,30.18,NNE,23,0.0,0.2,84,0.00,,,0.00,WUHU216HW,2013-12-02 10:21:00,
2013-12-02 02:26:00,40.0,35.5,30.18,NNE,23,0.0,0.2,84,0.00,,,0.00,WUHU216HW,2013-12-02 10:26:00,
2013-12-02 02:31:00,40.0,35.5,30.17,ENE,68,0.0,0.4,84,0.00,,,0.00,WUHU216HW,2013-12-02 10:31:00,
2013-12-02 02:36:00,39.8,35.3,30.17,ENE,68,0.0,0.4,84,0.00,,,0.00,WUHU216HW,2013-12-02 10:36:00,
2013-12-02 02:41:00,39.6,35.2,30.17,ENE,68,0.0,0.0,84,0.00,,,0.00,WUHU216HW,2013-12-02 10:41:00,
2013-12-02 02:46:00,39.4,35.0,30.17,ENE,68,0.0,0.0,84,0.00,,,0.00,WUHU216HW,2013-12-02 10:46:00,
2013-12-02 02:51:00,39.4,35.0,30.16,East,90,0.0,0.0,84,0.00,,,0.00,WUHU216HW,2013-12-02 10:51:00,
2013-12-02 02:56:00,39.2,34.8,30.16,East,90,0.0,0.0,84,0.00,,,0.00,WUHU216HW,2013-12-02 10:56:00,
2013-12-02 03:01:00,39.2,34.8,30.16,East,90,0.0,0.0,84,0.00,,,0.00,WUHU216HW,2013-12-02 11:01:00,
2013-12-02 03:06:00,39.1,34.9,30.16,East,90,0.2,0.2,85,0.00,,,0.00,WUHU216HW,2013-12-02 11:06:00,
2013-12-02 03:11:00,39.1,35.2,30.15,ENE,68,0.0,0.2,86,0.00,,,0.00,WUHU216HW,2013-12-02 11:11:00,
2013-12-02 03:16:00,39.2,35.4,30.15,ENE,68,0.4,0.4,86,0.00,,,0.00,WUHU216HW,2013-12-02 11:16:00,
2013-12-02 03:21:00,39.1,35.2,30.15,NE,45,0.0,0.4,86,0.00,,,0.00,WUHU216HW,2013-12-02 11:21:00,
2013-12-02 03:26:00,38.9,35.0,30.15,NNE,23,0.0,0.4,86,0.00,,,0.00,WUHU216HW,2013-12-02 11:26:00,
2013-12-02 03:31:00,38.9,35.0,30.15,NNE,23,0.0,0.4,86,0.00,,,0.00,WUHU216HW,2013-12-02 11:31:00,
2013-12-02 03:36:00,38.7,34.8,30.14,WNW,293,0.0,0.0,86,0.00,,,0.00,WUHU216HW,2013-12-02 11:36:00,
2013-12-02 03:41:00,38.5,34.7,30.14,WNW,293,0.0,0.0,86,0.00,,,0.00,WUHU216HW,2013-12-02 11:41:00,
2013-12-02 03:46:00,38.5,34.7,30.14,WNW,293,0.0,0.0,86,0.00,,,0.00,WUHU216HW,2013-12-02 11:46:00,
2013-12-02 03:51:00,38.5,34.7,30.14,NE,45,0.0,0.0,86,0.00,,,0.00,WUHU216HW,2013-12-02 11:51:00,
2013-12-02 03:56:00,38.3,34.5,30.13,NE,45,0.0,0.4,86,0.00,,,0.00,WUHU216HW,2013-12-02 11:56:00,
2013-12-02 04:01:00,38.2,34.3,30.13,NE,45,0.0,0.4,86,0.00,,,0.00,WUHU216HW,2013-12-02 12:01:00,
2013-12-02 04:06:00,38.2,34.3,30.13,NE,45,0.0,0.0,86,0.00,,,0.00,WUHU216HW,2013-12-02 12:06:00,
2013-12-02 04:11:00,38.2,34.6,30.13,NE,45,0.0,0.0,87,0.00,,,0.00,WUHU216HW,2013-12-02 12:11:00,
2013-12-02 04:16:00,38.3,34.7,30.13,NE,45,0.0,0.0,87,0.00,,,0.00,WUHU216HW,2013-12-02 12:16:00,
2013-12-02 04:21:00,38.2,34.6,30.13,NE,45,0.0,0.0,87,0.00,,,0.00,WUHU216HW,2013-12-02 12:21:00,
2013-12-02 04:26:00,38.2,34.6,30.13,NE,45,0.0,0.0,87,0.00,,,0.00,WUHU216HW,2013-12-02 12:26:00,
2013-12-02 04:31:00,38.0,34.4,30.13,ENE,68,0.2,0.4,87,0.00,,,0.00,WUHU216HW,2013-12-02 12:31:00,
2013-12-02 04:36:00,37.8,34.2,30.13,NE,45,0.0,0.4,87,0.00,,,0.00,WUHU216HW,2013-12-02 12:36:00,
2013-12-02 04:41:00,37.8,34.2,30.12,ENE,68,0.0,0.2,87,0.00,,,0.00,WUHU216HW,2013-12-02 12:41:00,
2013-12-02 04:46:00,37.8,34.2,30.12,ENE,68,0.0,0.2,87,0.00,,,0.00,WUHU216HW,2013-12-02 12:46:00,
2013-12-02 04:51:00,37.6,34.0,30.12,ENE,68,0.0,0.0,87,0.00,,,0.00,WUHU216HW,2013-12-02 12:51:00,
2013-12-02 04:56:00,37.4,33.8,30.12,ENE,68,0.0,0.0,87,0.00,,,0.00,WUHU216HW,2013-12-02 12:56:00,
2013-12-02 05:01:00,37.4,33.8,30.12,East,90,0.0,0.0,87,0.00,,,0.00,WUHU216HW,2013-12-02 13:01:00,
2013-12-02 05:06:00,37.4,33.8,30.12,NE,45,0.0,0.4,87,0.00,,,0.00,WUHU216HW,2013-12-02 13:06:00,
2013-12-02 05:11:00,37.3,33.7,30.11,NW,315,0.0,0.4,87,0.00,,,0.00,WUHU216HW,2013-12-02 13:11:00,
2013-12-02 05:16:00,37.3,33.7,30.11,NNE,23,0.0,0.0,87,0.00,,,0.00,WUHU216HW,2013-12-02 13:16:00,
2013-12-02 05:21:00,37.1,33.5,30.12,NNE,23,0.0,0.4,87,0.00,,,0.00,WUHU216HW,2013-12-02 13:21:00,
2013-12-02 05:26:00,37.1,33.5,30.11,NNE,23,0.0,0.4,87,0.00,,,0.00,WUHU216HW,2013-12-02 13:26:00,
2013-12-02 05:31:00,37.1,33.5,30.11,ENE,68,0.0,0.2,87,0.00,,,0.00,WUHU216HW,2013-12-02 13:31:00,
2013-12-02 05:36:00,37.1,33.5,30.11,ENE,68,0.0,0.0,87,0.00,,,0.00,WUHU216HW,2013-12-02 13:36:00,
2013-12-02 05:41:00,36.9,33.3,30.11,ESE,113,0.0,0.0,87,0.00,,,0.00,WUHU216HW,2013-12-02 13:41:00,
2013-12-02 05:46:00,36.9,33.3,30.10,ESE,113,0.0,0.0,87,0.00,,,0.00,WUHU216HW,2013-12-02 13:46:00,
2013-12-02 05:51:00,36.9,33.3,30.11,NE,45,0.0,0.0,87,0.00,,,0.00,WUHU216HW,2013-12-02 13:51:00,
2013-12-02 05:56:00,36.7,33.1,30.11,NE,45,0.0,0.0,87,0.00,,,0.00,WUHU216HW,2013-12-02 13:56:00,
2013-12-02 06:01:00,36.7,33.1,30.11,NE,45,0.0,0.0,87,0.00,,,0.00,WUHU216HW,2013-12-02 14:01:00,
2013-12-02 06:06:00,36.7,33.1,30.10,NE,45,0.0,0.0,87,0.00,,,0.00,WUHU216HW,2013-12-02 14:06:00,
2013-12-02 06:11:00,36.7,33.1,30.11,NE,45,0.0,0.0,87,0.00,,,0.00,WUHU216HW,2013-12-02 14:11:00,
2013-12-02 06:16:00,36.5,32.9,30.11,NE,45,0.0,0.0,87,0.00,,,0.00,WUHU216HW,2013-12-02 14:16:00,
2013-12-02 06:21:00,36.4,32.8,30.11,NE,45,0.0,0.0,87,0.00,,,0.00,WUHU216HW,2013-12-02 14:21:00,
2013-12-02 06:26:00,36.4,32.8,30.11,NE,45,0.0,0.0,87,0.00,,,0.00,WUHU216HW,2013-12-02 14:26:00,
2013-12-02 06:31:00,36.4,33.1,30.11,NE,45,0.0,0.0,88,0.00,,,0.00,WUHU216HW,2013-12-02 14:31:00,
2013-12-02 06:36:00,36.2,33.0,30.10,NE,45,0.0,0.0,88,0.00,,,0.00,WUHU216HW,2013-12-02 14:36:00,
2013-12-02 06:41:00,36.2,33.0,30.10,NE,45,0.0,0.0,88,0.00,,,0.00,WUHU216HW,2013-12-02 14:41:00,
2013-12-02 06:46:00,36.2,33.0,30.11,NE,45,0.0,0.0,88,0.00,,,0.00,WUHU216HW,2013-12-02 14:46:00,
2013-12-02 06:51:00,36.0,32.8,30.11,NE,45,0.0,0.0,88,0.00,,,0.00,WUHU216HW,2013-12-02 14:51:00,
2013-12-02 06:55:00,36.0,32.4,30.12,NE,45,0.0,0.0,87,0.00,,,0.00,WUHU216HW,2013-12-02 14:55:00,
2013-12-02 07:00:00,36.0,32.4,30.12,NE,45,0.0,0.0,87,0.00,,,0.00,WUHU216HW,2013-12-02 15:00:00,
2013-12-02 07:05:00,35.8,32.2,30.12,NE,45,0.4,0.4,87,0.00,,,0.00,WUHU216HW,2013-12-02 15:05:00,
2013-12-02 07:10:00,35.8,32.2,30.12,ENE,68,0.0,0.4,87,0.00,,,0.00,WUHU216HW,2013-12-02 15:10:00,
2013-12-02 07:15:00,35.8,32.2,30.12,NE,45,0.0,0.2,87,0.00,,,0.00,WUHU216HW,2013-12-02 15:15:00,
2013-12-02 07:20:00,36.0,32.4,30.12,NNE,23,0.0,0.0,87,0.00,,,0.00,WUHU216HW,2013-12-02 15:20:00,
2013-12-02 07:25:00,36.0,32.4,30.12,NE,45,0.0,0.0,87,0.00,,,0.00,WUHU216HW,2013-12-02 15:25:00,
2013-12-02 07:30:00,36.0,32.8,30.13,NE,45,0.0,0.0,88,0.00,,,0.00,WUHU216HW,2013-12-02 15:30:00,
2013-12-02 07:35:00,36.2,33.0,30.13,ENE,68,0.0,0.4,88,0.00,,,0.00,WUHU216HW,2013-12-02 15:35:00,
2013-12-02 07:40:00,36.4,33.1,30.13,ENE,68,0.4,0.4,88,0.00,,,0.00,WUHU216HW,2013-12-02 15:40:00,
2013-12-02 07:45:00,36.5,33.3,30.13,ENE,68,0.0,0.4,88,0.00,,,0.00,WUHU216HW,2013-12-02 15:45:00,
2013-12-02 07:50:00,36.9,33.9,30.13,ENE,68,0.0,0.2,89,0.00,,,0.00,WUHU216HW,2013-12-02 15:50:00,
2013-12-02 07:55:00,37.1,34.1,30.13,East,90,0.0,0.0,89,0.00,,,0.00,WUHU216HW,2013-12-02 15:55:00,
2013-12-02 08:00:00,37.3,34.3,30.12,ESE,113,0.0,0.4,89,0.00,,,0.00,WUHU216HW,2013-12-02 16:00:00,
2013-12-02 08:05:00,37.8,35.1,30.12,East,90,0.2,0.4,90,0.00,,,0.00,WUHU216HW,2013-12-02 16:05:00,
2013-12-02 08:10:00,38.0,35.3,30.12,East,90,0.0,0.4,90,0.00,,,0.00,WUHU216HW,2013-12-02 16:10:00,
2013-12-02 08:15:00,38.5,36.1,30.12,SE,135,0.4,0.7,91,0.00,,,0.00,WUHU216HW,2013-12-02 16:15:00,
2013-12-02 08:20:00,39.2,36.8,30.12,SE,135,0.2,1.6,91,0.00,,,0.00,WUHU216HW,2013-12-02 16:20:00,
2013-12-02 08:25:00,40.0,37.8,30.12,SE,135,0.4,1.6,92,0.00,,,0.00,WUHU216HW,2013-12-02 16:25:00,
2013-12-02 08:30:00,40.5,38.3,30.12,SE,135,0.9,1.6,92,0.00,,,0.00,WUHU216HW,2013-12-02 16:30:00,
2013-12-02 08:35:00,41.0,38.6,30.12,South,180,1.1,2.7,91,0.00,,,0.00,WUHU216HW,2013-12-02 16:35:00,
2013-12-02 08:40:00,41.6,38.9,30.12,SE,135,3.1,3.1,90,0.00,,,0.00,WUHU216HW,2013-12-02 16:40:00,
2013-12-02 08:45:00,42.3,39.6,30.12,SSE,158,1.1,3.1,90,0.00,,,0.00,WUHU216HW,2013-12-02 16:45:00,
2013-12-02 08:50:00,42.7,39.7,30.12,SSE,158,0.4,1.1,89,0.00,,,0.00,WUHU216HW,2013-12-02 16:50:00,
2013-12-02 08:55:00,42.8,39.5,30.12,ESE,113,0.0,1.1,88,0.00,,,0.00,WUHU216HW,2013-12-02 16:55:00,
2013-12-02 09:00:00,43.4,40.4,30.12,ESE,113,0.0,1.8,89,0.00,,,0.00,WUHU216HW,2013-12-02 17:00:00,
2013-12-02 09:05:00,43.7,40.4,30.12,East,90,1.1,1.8,88,0.00,,,0.00,WUHU216HW,2013-12-02 17:05:00,
2013-12-02 09:10:00,44.3,41.0,30.12,SSW,203,0.7,1.1,88,0.00,,,0.00,WUHU216HW,2013-12-02 17:10:00,
2013-12-02 09:15:00,44.6,41.1,30.12,SW,225,0.4,0.7,87,0.00,,,0.00,WUHU216HW,2013-12-02 17:15:00,
2013-12-02 09:20:00,44.8,41.2,30.12,South,180,0.7,0.7,87,0.00,,,0.00,WUHU216HW,2013-12-02 17:20:00,
2013-12-02 09:25:00,45.2,41.2,30.12,SW,225,0.7,0.7,86,0.00,,,0.00,WUHU216HW,2013-12-02 17:25:00,
2013-12-02 09:31:00,45.7,41.5,30.12,West,270,1.1,1.1,85,0.00,,,0.00,WUHU216HW,2013-12-02 17:31:00,
2013-12-02 09:35:00,46.1,41.6,30.12,South,180,0.2,1.1,84,0.00,,,0.00,WUHU216HW,2013-12-02 17:35:00,
2013-12-02 09:41:00,46.4,41.6,30.12,East,90,0.7,0.9,83,0.00,,,0.00,WUHU216HW,2013-12-02 17:41:00,
2013-12-02 09:46:00,46.8,41.6,30.12,East,90,0.4,1.1,82,0.00,,,0.00,WUHU216HW,2013-12-02 17:46:00,
2013-12-02 09:51:00,47.5,42.3,30.11,ESE,113,0.0,1.1,82,0.00,,,0.00,WUHU216HW,2013-12-02 17:51:00,
2013-12-02 09:56:00,48.1,42.8,30.11,South,180,0.4,1.1,82,0.00,,,0.00,WUHU216HW,2013-12-02 17:56:00,
2013-12-02 10:00:00,49.1,43.8,30.11,SSW,203,0.4,0.9,82,0.00,,,0.00,WUHU216HW,2013-12-02 18:00:00,
2013-12-02 10:05:00,50.2,44.3,30.11,SSW,203,0.4,0.9,80,0.00,,,0.00,WUHU216HW,2013-12-02 18:05:00,
2013-12-02 10:10:00,51.5,44.8,30.10,SSW,203,0.9,0.9,78,0.00,,,0.00,WUHU216HW,2013-12-02 18:10:00,
2013-12-02 10:15:00,52.2,45.2,30.10,SE,135,0.7,0.9,77,0.00,,,0.00,WUHU216HW,2013-12-02 18:15:00,
2013-12-02 10:20:00,52.6,45.2,30.10,NNE,23,0.0,1.1,76,0.00,,,0.00,WUHU216HW,2013-12-02 18:20:00,
2013-12-02 10:25:00,53.1,45.4,30.10,West,270,0.4,1.1,75,0.00,,,0.00,WUHU216HW,2013-12-02 18:25:00,
2013-12-02 10:30:00,53.6,45.9,30.09,South,180,0.0,0.7,75,0.00,,,0.00,WUHU216HW,2013-12-02 18:30:00,
2013-12-02 10:35:00,54.2,46.5,30.09,WNW,293,0.2,0.7,75,0.00,,,0.00,WUHU216HW,2013-12-02 18:35:00,
2013-12-02 10:40:00,54.9,46.7,30.08,West,270,1.1,1.1,74,0.00,,,0.00,WUHU216HW,2013-12-02 18:40:00,
2013-12-02 10:45:00,55.6,47.1,30.08,West,270,1.1,2.0,73,0.00,,,0.00,WUHU216HW,2013-12-02 18:45:00,
2013-12-02 10:50:00,56.5,47.3,30.08,WNW,293,0.9,2.0,71,0.00,,,0.00,WUHU216HW,2013-12-02 18:50:00,
2013-12-02 10:55:00,57.1,47.3,30.07,WNW,293,0.0,1.8,70,0.00,,,0.00,WUHU216HW,2013-12-02 18:55:00,
2013-12-02 11:00:00,57.8,47.7,30.07,NW,315,1.8,1.8,69,0.00,,,0.00,WUHU216HW,2013-12-02 19:00:00,
2013-12-02 11:05:00,58.3,47.8,30.07,WNW,293,4.7,4.7,68,0.00,,,0.00,WUHU216HW,2013-12-02 19:05:00,
2013-12-02 11:10:00,58.9,47.9,30.07,WNW,293,2.9,4.9,67,0.00,,,0.00,WUHU216HW,2013-12-02 19:10:00,
2013-12-02 11:15:00,59.4,48.1,30.07,WNW,293,2.5,4.9,66,0.00,,,0.00,WUHU216HW,2013-12-02 19:15:00,
2013-12-02 11:20:00,59.9,48.2,30.07,WNW,293,3.4,4.5,65,0.00,,,0.00,WUHU216HW,2013-12-02 19:20:00,
2013-12-02 11:25:00,60.5,48.7,30.07,WNW,293,1.3,4.7,65,0.00,,,0.00,WUHU216HW,2013-12-02 19:25:00,
2013-12-02 11:30:00,60.7,48.9,30.07,WNW,293,3.6,4.7,65,0.00,,,0.00,WUHU216HW,2013-12-02 19:30:00,
2013-12-02 11:35:00,61.2,49.0,30.07,WNW,293,5.1,5.4,64,0.00,,,0.00,WUHU216HW,2013-12-02 19:35:00,
2013-12-02 11:40:00,61.4,48.7,30.08,West,270,5.6,5.6,63,0.00,,,0.00,WUHU216HW,2013-12-02 19:40:00,
2013-12-02 11:45:00,61.6,48.9,30.08,WSW,248,2.9,6.0,63,0.00,,,0.00,WUHU216HW,2013-12-02 19:45:00,
2013-12-02 11:50:00,61.6,48.4,30.07,West,270,3.4,6.7,62,0.00,,,0.00,WUHU216HW,2013-12-02 19:50:00,
2013-12-02 11:55:00,61.4,47.9,30.07,WSW,248,6.7,6.7,61,0.00,,,0.00,WUHU216HW,2013-12-02 19:55:00,
2013-12-02 12:00:00,61.4,47.9,30.06,WSW,248,3.4,6.7,61,0.00,,,0.00,WUHU216HW,2013-12-02 20:00:00,
2013-12-02 12:05:00,61.6,48.1,30.05,West,270,1.3,3.4,61,0.00,,,0.00,WUHU216HW,2013-12-02 20:05:00,
2013-12-02 12:10:00,61.7,47.8,30.05,NW,315,1.3,4.5,60,0.00,,,0.00,WUHU216HW,2013-12-02 20:10:00,
2013-12-02 12:15:00,62.1,48.2,30.05,NW,315,4.9,4.9,60,0.00,,,0.00,WUHU216HW,2013-12-02 20:15:00,
2013-12-02 12:20:00,62.6,48.6,30.05,WSW,248,2.5,6.3,60,0.00,,,0.00,WUHU216HW,2013-12-02 20:20:00,
2013-12-02 12:25:00,63.0,48.4,30.05,WNW,293,2.7,6.3,59,0.00,,,0.00,WUHU216HW,2013-12-02 20:25:00,
2013-12-02 12:30:00,63.0,48.0,30.04,North,0,1.1,4.9,58,0.00,,,0.00,WUHU216HW,2013-12-02 20:30:00,
2013-12-02 12:35:00,63.0,47.4,30.05,WNW,293,1.8,4.9,57,0.00,,,0.00,WUHU216HW,2013-12-02 20:35:00,
2013-12-02 12:40:00,63.4,47.4,30.04,North,0,2.2,4.9,56,0.00,,,0.00,WUHU216HW,2013-12-02 20:40:00,
2013-12-02 12:45:00,63.5,48.0,30.04,West,270,3.4,4.9,57,0.00,,,0.00,WUHU216HW,2013-12-02 20:45:00,
2013-12-02 12:50:00,63.7,48.2,30.04,SW,225,1.1,4.0,57,0.00,,,0.00,WUHU216HW,2013-12-02 20:50:00,
2013-12-02 12:55:00,63.9,48.2,30.03,West,270,1.1,6.5,57,0.00,,,0.00,WUHU216HW,2013-12-02 20:55:00,
2013-12-02 13:00:00,64.1,47.4,30.03,SW,225,3.4,6.5,55,0.00,,,0.00,WUHU216HW,2013-12-02 21:00:00,
2013-12-02 13:05:00,64.1,47.4,30.03,WNW,293,3.1,3.4,55,0.00,,,0.00,WUHU216HW,2013-12-02 21:05:00,
2013-12-02 13:10:00,64.4,48.2,30.02,WSW,248,3.4,3.4,56,0.00,,,0.00,WUHU216HW,2013-12-02 21:10:00,
2013-12-02 13:15:00,64.4,48.2,30.02,WNW,293,3.1,6.0,56,0.00,,,0.00,WUHU216HW,2013-12-02 21:15:00,
2013-12-02 13:20:00,64.6,48.0,30.01,SW,225,4.3,6.9,55,0.00,,,0.00,WUHU216HW,2013-12-02 21:20:00,
2013-12-02 13:25:00,64.8,48.2,30.01,NW,315,4.0,6.9,55,0.00,,,0.00,WUHU216HW,2013-12-02 21:25:00,
2013-12-02 13:30:00,64.8,47.7,30.01,West,270,3.8,7.6,54,0.00,,,0.00,WUHU216HW,2013-12-02 21:30:00,
2013-12-02 13:35:00,65.0,47.3,30.01,West,270,5.1,7.6,53,0.00,,,0.00,WUHU216HW,2013-12-02 21:35:00,
2013-12-02 13:40:00,65.2,48.1,30.00,WNW,293,4.7,6.9,54,0.00,,,0.00,WUHU216HW,2013-12-02 21:40:00,
2013-12-02 13:45:00,65.2,48.1,30.00,NW,315,3.8,6.3,54,0.00,,,0.00,WUHU216HW,2013-12-02 21:45:00,
2013-12-02 13:50:00,65.3,48.3,30.00,West,270,7.6,9.2,54,0.00,,,0.00,WUHU216HW,2013-12-02 21:50:00,
2013-12-02 13:55:00,65.2,48.1,30.00,West,270,4.7,9.2,54,0.00,,,0.00,WUHU216HW,2013-12-02 21:55:00,
2013-12-02 14:00:00,64.6,48.0,30.00,WNW,293,4.0,7.6,55,0.00,,,0.00,WUHU216HW,2013-12-02 22:00:00,
2013-12-02 14:05:00,64.4,47.8,30.00,WSW,248,3.4,6.7,55,0.00,,,0.00,WUHU216HW,2013-12-02 22:05:00,
2013-12-02 14:10:00,64.4,48.2,29.99,WSW,248,2.5,6.7,56,0.00,,,0.00,WUHU216HW,2013-12-02 22:10:00,
2013-12-02 14:15:00,64.4,48.8,29.99,SW,225,2.2,5.4,57,0.00,,,0.00,WUHU216HW,2013-12-02 22:15:00,
2013-12-02 14:20:00,64.4,49.2,29.99,SSW,203,3.4,7.2,58,0.00,,,0.00,WUHU216HW,2013-12-02 22:20:00,
2013-12-02 14:25:00,64.1,49.4,29.99,SSW,203,2.2,7.2,59,0.00,,,0.00,WUHU216HW,2013-12-02 22:25:00,
2013-12-02 14:30:00,63.9,49.2,29.98,WSW,248,2.2,6.3,59,0.00,,,0.00,WUHU216HW,2013-12-02 22:30:00,
2013-12-02 14:35:00,64.1,49.4,29.99,WSW,248,2.2,4.9,59,0.00,,,0.00,WUHU216HW,2013-12-02 22:35:00,
2013-12-02 14:40:00,64.3,49.1,29.99,SSW,203,3.6,5.1,58,0.00,,,0.00,WUHU216HW,2013-12-02 22:40:00,
2013-12-02 14:45:00,64.1,48.4,29.99,WSW,248,3.8,5.1,57,0.00,,,0.00,WUHU216HW,2013-12-02 22:45:00,
2013-12-02 14:50:00,63.7,48.6,29.99,West,270,2.0,4.7,58,0.00,,,0.00,WUHU216HW,2013-12-02 22:50:00,
2013-12-02 14:55:00,63.4,48.2,29.99,WNW,293,1.8,4.7,58,0.00,,,0.00,WUHU216HW,2013-12-02 22:55:00,
2013-12-02 15:00:00,63.0,49.0,29.99,West,270,1.8,4.5,60,0.00,,,0.00,WUHU216HW,2013-12-02 23:00:00,
2013-12-02 15:05:00,62.3,48.7,29.99,WSW,248,0.4,4.5,61,0.00,,,0.00,WUHU216HW,2013-12-02 23:05:00,
2013-12-02 15:10:00,62.3,49.2,29.99,WNW,293,2.0,2.2,62,0.00,,,0.00,WUHU216HW,2013-12-02 23:10:00,
2013-12-02 15:15:00,61.9,49.2,30.00,NNW,338,0.7,2.0,63,0.00,,,0.00,WUHU216HW,2013-12-02 23:15:00,
2013-12-02 15:20:00,61.9,49.6,30.00,SW,225,3.4,4.0,64,0.00,,,0.00,WUHU216HW,2013-12-02 23:20:00,
2013-12-02 15:25:00,61.7,49.9,30.00,West,270,3.6,4.3,65,0.00,,,0.00,WUHU216HW,2013-12-02 23:25:00,
2013-12-02 15:30:00,61.6,49.7,30.00,SSW,203,2.5,5.4,65,0.00,,,0.00,WUHU216HW,2013-12-02 23:30:00,
2013-12-02 15:35:00,61.4,49.5,29.99,SW,225,1.8,6.3,65,0.00,,,0.00,WUHU216HW,2013-12-02 23:35:00,
2013-12-02 15:40:00,61.0,49.2,29.99,WNW,293,3.8,6.3,65,0.00,,,0.00,WUHU216HW,2013-12-02 23:40:00,
2013-12-02 15:45:00,60.7,48.9,29.99,WSW,248,5.4,5.6,65,0.00,,,0.00,WUHU216HW,2013-12-02 23:45:00,
2013-12-02 15:50:00,60.3,49.0,29.99,SE,135,0.4,5.4,66,0.00,,,0.00,WUHU216HW,2013-12-02 23:50:00,
2013-12-02 15:55:00,60.1,49.1,30.00,North,0,0.4,3.1,67,0.00,,,0.00,WUHU216HW,2013-12-02 23:55:00,
2013-12-02 16:00:00,59.8,48.8,30.00,WNW,293,3.4,3.4,67,0.00,,,0.00,WUHU216HW,2013-12-03 00:00:00,
2013-12-02 16:05:00,59.6,48.6,30.00,NW,315,0.0,3.4,67,0.00,,,0.00,WUHU216HW,2013-12-03 00:05:00,
2013-12-02 16:10:00,59.2,49.1,30.00,WNW,293,2.5,7.8,69,0.00,,,0.00,WUHU216HW,2013-12-03 00:10:00,
2013-12-02 16:15:00,58.7,49.0,30.00,SSW,203,3.4,7.8,70,0.00,,,0.00,WUHU216HW,2013-12-03 00:15:00,
2013-12-02 16:20:00,58.5,48.8,30.00,SW,225,0.4,4.9,70,0.00,,,0.00,WUHU216HW,2013-12-03 00:20:00,
2013-12-02 16:25:00,58.1,48.8,30.00,SSW,203,1.8,2.5,71,0.00,,,0.00,WUHU216HW,2013-12-03 00:25:00,
2013-12-02 16:30:00,57.8,49.1,30.00,SSW,203,1.3,4.0,73,0.00,,,0.00,WUHU216HW,2013-12-03 00:30:00,
2013-12-02 16:35:00,57.4,48.8,30.00,ENE,68,0.4,4.0,73,0.00,,,0.00,WUHU216HW,2013-12-03 00:35:00,
2013-12-02 16:40:00,57.2,48.6,30.00,East,90,0.4,1.8,73,0.00,,,0.00,WUHU216HW,2013-12-03 00:40:00,
2013-12-02 16:45:00,56.9,48.6,29.99,WSW,248,0.0,0.9,74,0.00,,,0.00,WUHU216HW,2013-12-03 00:45:00,
2013-12-02 16:50:00,56.5,48.2,29.99,SE,135,0.4,0.9,74,0.00,,,0.00,WUHU216HW,2013-12-03 00:50:00,
2013-12-02 16:55:00,56.3,48.5,29.99,South,180,0.0,2.5,75,0.00,,,0.00,WUHU216HW,2013-12-03 00:55:00,
2013-12-02 17:00:00,56.2,49.0,29.99,NNW,338,1.1,2.5,77,0.00,,,0.00,WUHU216HW,2013-12-03 01:00:00,
2013-12-02 17:05:00,55.8,48.3,29.99,North,0,0.0,2.2,76,0.00,,,0.00,WUHU216HW,2013-12-03 01:05:00,
2013-12-02 17:10:00,55.8,48.3,29.98,WNW,293,0.4,1.1,76,0.00,,,0.00,WUHU216HW,2013-12-03 01:10:00,
2013-12-02 17:15:00,55.4,48.0,29.98,WSW,248,0.0,0.4,76,0.00,,,0.00,WUHU216HW,2013-12-03 01:15:00,
2013-12-02 17:20:00,55.1,48.0,29.98,ENE,68,0.0,0.4,77,0.00,,,0.00,WUHU216HW,2013-12-03 01:20:00,
2013-12-02 17:25:00,54.7,47.6,29.98,NNE,23,0.4,0.9,77,0.00,,,0.00,WUHU216HW,2013-12-03 01:25:00,
2013-12-02 17:30:00,54.4,47.3,29.98,NE,45,0.7,1.6,77,0.00,,,0.00,WUHU216HW,2013-12-03 01:30:00,
2013-12-02 17:35:00,54.0,47.4,29.97,NE,45,0.4,1.6,78,0.00,,,0.00,WUHU216HW,2013-12-03 01:35:00,
2013-12-02 17:40:00,53.8,47.2,29.98,NE,45,0.7,1.3,78,0.00,,,0.00,WUHU216HW,2013-12-03 01:40:00,
2013-12-02 17:45:00,53.6,47.0,29.98,NE,45,0.0,1.8,78,0.00,,,0.00,WUHU216HW,2013-12-03 01:45:00,
2013-12-02 17:50:00,53.5,47.2,29.98,East,90,0.7,1.8,79,0.00,,,0.00,WUHU216HW,2013-12-03 01:50:00,
2013-12-02 17:55:00,53.3,47.3,29.98,East,90,0.0,0.7,80,0.00,,,0.00,WUHU216HW,2013-12-03 01:55:00,
2013-12-02 18:00:00,52.9,47.0,29.98,East,90,0.7,0.7,80,0.00,,,0.00,WUHU216HW,2013-12-03 02:00:00,
2013-12-02 18:05:00,52.7,47.1,29.98,ESE,113,2.2,2.2,81,0.00,,,0.00,WUHU216HW,2013-12-03 02:05:00,
2013-12-02 18:10:00,52.7,47.4,29.98,East,90,0.2,2.7,82,0.00,,,0.00,WUHU216HW,2013-12-03 02:10:00,
2013-12-02 18:15:00,52.6,47.3,29.98,ENE,68,0.0,2.7,82,0.00,,,0.00,WUHU216HW,2013-12-03 02:15:00,
2013-12-02 18:20:00,52.4,47.1,29.98,ESE,113,0.9,1.3,82,0.00,,,0.00,WUHU216HW,2013-12-03 02:20:00,
2013-12-02 18:25:00,52.2,46.9,29.98,NE,45,0.2,1.3,82,0.00,,,0.00,WUHU216HW,2013-12-03 02:25:00,
2013-12-02 18:30:00,52.0,46.7,29.98,NE,45,1.3,1.3,82,0.00,,,0.00,WUHU216HW,2013-12-03 02:30:00,
2013-12-02 18:35:00,51.8,46.8,29.98,North,0,0.0,1.3,83,0.00,,,0.00,WUHU216HW,2013-12-03 02:35:00,
2013-12-02 18:40:00,51.8,46.8,29.98,WNW,293,0.0,1.3,83,0.00,,,0.00,WUHU216HW,2013-12-03 02:40:00,
2013-12-02 18:45:00,51.7,46.6,29.98,North,0,0.0,0.4,83,0.00,,,0.00,WUHU216HW,2013-12-03 02:45:00,
2013-12-02 18:50:00,51.5,46.4,29.98,North,0,0.0,0.0,83,0.00,,,0.00,WUHU216HW,2013-12-03 02:50:00,
2013-12-02 18:55:00,51.5,46.4,29.98,NNE,23,0.4,0.4,83,0.00,,,0.00,WUHU216HW,2013-12-03 02:55:00,
2013-12-02 19:00:00,51.1,46.1,29.98,East,90,0.0,0.4,83,0.00,,,0.00,WUHU216HW,2013-12-03 03:00:00,
2013-12-02 19:05:00,50.9,45.9,29.98,East,90,0.0,0.4,83,0.00,,,0.00,WUHU216HW,2013-12-03 03:05:00,
2013-12-02 19:10:00,50.8,46.1,29.98,East,90,0.0,0.0,84,0.00,,,0.00,WUHU216HW,2013-12-03 03:10:00,
2013-12-02 19:15:00,50.6,45.9,29.99,East,90,0.0,0.0,84,0.00,,,0.00,WUHU216HW,2013-12-03 03:15:00,
2013-12-02 19:20:00,50.4,45.7,29.98,NE,45,0.0,0.0,84,0.00,,,0.00,WUHU216HW,2013-12-03 03:20:00,
2013-12-02 19:25:00,50.4,45.7,29.99,NNW,338,0.0,0.0,84,0.00,,,0.00,WUHU216HW,2013-12-03 03:25:00,
2013-12-02 19:30:00,50.0,45.4,29.99,ENE,68,0.0,0.0,84,0.00,,,0.00,WUHU216HW,2013-12-03 03:30:00,
2013-12-02 19:35:00,50.0,45.9,29.99,WNW,293,0.0,0.2,86,0.00,,,0.00,WUHU216HW,2013-12-03 03:35:00,
2013-12-02 19:40:00,50.0,45.9,29.99,WSW,248,1.8,1.8,86,0.00,,,0.00,WUHU216HW,2013-12-03 03:40:00,
2013-12-02 19:45:00,50.0,45.9,29.99,West,270,0.9,1.8,86,0.00,,,0.00,WUHU216HW,2013-12-03 03:45:00,
2013-12-02 19:50:00,50.0,45.9,29.98,NW,315,0.2,1.1,86,0.00,,,0.00,WUHU216HW,2013-12-03 03:50:00,
2013-12-02 19:55:00,50.0,45.9,29.98,SSW,203,0.0,2.5,86,0.00,,,0.00,WUHU216HW,2013-12-03 03:55:00,
2013-12-02 20:00:00,50.0,46.3,29.99,WNW,293,0.2,2.5,87,0.00,,,0.00,WUHU216HW,2013-12-03 04:00:00,
2013-12-02 20:05:00,50.4,46.6,29.99,WNW,293,2.5,2.5,87,0.00,,,0.00,WUHU216HW,2013-12-03 04:05:00,
2013-12-02 20:10:00,50.6,47.1,29.99,WSW,248,0.4,2.5,88,0.00,,,0.00,WUHU216HW,2013-12-03 04:10:00,
2013-12-02 20:15:00,50.8,47.3,29.99,NW,315,0.7,2.5,88,0.00,,,0.00,WUHU216HW,2013-12-03 04:15:00,
2013-12-02 20:20:00,50.8,47.6,29.98,WNW,293,1.1,1.8,89,0.00,,,0.00,WUHU216HW,2013-12-03 04:20:00,
2013-12-02 20:25:00,50.8,47.6,29.98,NNW,338,1.1,2.5,89,0.00,,,0.00,WUHU216HW,2013-12-03 04:25:00,
2013-12-02 20:30:00,50.8,47.3,29.98,WNW,293,2.0,3.1,88,0.00,,,0.00,WUHU216HW,2013-12-03 04:30:00,
2013-12-02 20:35:00,50.8,47.6,29.97,West,270,0.4,3.1,89,0.00,,,0.00,WUHU216HW,2013-12-03 04:35:00,
2013-12-02 20:40:00,50.8,47.6,29.97,NW,315,0.2,2.7,89,0.00,,,0.00,WUHU216HW,2013-12-03 04:40:00,
2013-12-02 20:45:00,51.1,48.0,29.97,NNW,338,0.0,2.9,89,0.00,,,0.00,WUHU216HW,2013-12-03 04:45:00,
2013-12-02 20:50:00,50.9,47.8,29.97,WNW,293,0.4,2.9,89,0.00,,,0.00,WUHU216HW,2013-12-03 04:50:00,
2013-12-02 20:55:00,50.9,47.8,29.97,West,270,2.2,2.2,89,0.00,,,0.00,WUHU216HW,2013-12-03 04:55:00,
2013-12-02 21:00:00,50.9,47.8,29.97,WNW,293,0.0,2.2,89,0.00,,,0.00,WUHU216HW,2013-12-03 05:00:00,
2013-12-02 21:01:00,50.9,47.8,29.97,NNE,23,0.0,2.2,89,0.00,,,0.00,WUHU216HW,2013-12-03 05:01:00,
2013-12-02 21:02:00,50.9,47.8,29.97,East,90,0.0,2.2,89,0.00,,,0.00,WUHU216HW,2013-12-03 05:02:00,
2013-12-02 21:07:00,50.8,47.6,29.97,North,0,0.9,0.9,89,0.00,,,0.00,WUHU216HW,2013-12-03 05:07:00,
2013-12-02 21:12:00,50.8,47.6,29.97,NE,45,0.4,0.9,89,0.00,,,0.00,WUHU216HW,2013-12-03 05:12:00,
2013-12-02 21:17:00,50.8,47.3,29.97,North,0,0.0,0.4,88,0.00,,,0.00,WUHU216HW,2013-12-03 05:17:00,
2013-12-02 21:22:00,50.4,46.9,29.97,NW,315,0.0,0.4,88,0.00,,,0.00,WUHU216HW,2013-12-03 05:22:00,
2013-12-02 21:27:00,50.4,46.9,29.96,NW,315,0.0,0.4,88,0.00,,,0.00,WUHU216HW,2013-12-03 05:27:00,
2013-12-02 21:32:00,50.4,46.9,29.96,WSW,248,0.0,1.1,88,0.00,,,0.00,WUHU216HW,2013-12-03 05:32:00,
2013-12-02 21:37:00,50.4,46.9,29.96,NE,45,0.0,1.1,88,0.00,,,0.00,WUHU216HW,2013-12-03 05:37:00,
2013-12-02 21:42:00,50.4,46.9,29.96,WNW,293,2.0,2.0,88,0.00,,,0.00,WUHU216HW,2013-12-03 05:42:00,
2013-12-02 21:47:00,50.6,47.1,29.96,West,270,1.8,2.0,88,0.00,,,0.00,WUHU216HW,2013-12-03 05:47:00,
2013-12-02 21:52:00,50.6,47.4,29.96,WNW,293,1.1,2.2,89,0.00,,,0.00,WUHU216HW,2013-12-03 05:52:00,
2013-12-02 21:57:00,50.8,47.6,29.96,NW,315,0.4,2.2,89,0.00,,,0.00,WUHU216HW,2013-12-03 05:57:00,
2013-12-02 22:02:00,50.8,47.6,29.96,WNW,293,2.7,4.5,89,0.00,,,0.00,WUHU216HW,2013-12-03 06:02:00,
2013-12-02 22:07:00,50.8,47.6,29.96,West,270,0.4,4.5,89,0.00,,,0.00,WUHU216HW,2013-12-03 06:07:00,
2013-12-02 22:12:00,50.8,47.6,29.96,West,270,0.0,2.0,89,0.00,,,0.00,WUHU216HW,2013-12-03 06:12:00,
2013-12-02 22:17:00,50.8,47.6,29.95,NNE,23,0.0,2.0,89,0.00,,,0.00,WUHU216HW,2013-12-03 06:17:00,
2013-12-02 22:22:00,50.6,47.1,29.95,NNW,338,0.2,0.4,88,0.00,,,0.00,WUHU216HW,2013-12-03 06:22:00,
2013-12-02 22:27:00,50.2,46.7,29.95,West,270,2.2,2.2,88,0.00,,,0.00,WUHU216HW,2013-12-03 06:27:00,
2013-12-02 22:32:00,50.4,47.3,29.95,WNW,293,1.1,2.2,89,0.00,,,0.00,WUHU216HW,2013-12-03 06:32:00,
2013-12-02 22:37:00,50.6,47.4,29.95,WNW,293,1.3,3.4,89,0.00,,,0.00,WUHU216HW,2013-12-03 06:37:00,
2013-12-02 22:42:00,50.8,47.9,29.95,West,270,2.2,4.0,90,0.00,,,0.00,WUHU216HW,2013-12-03 06:42:00,
2013-12-02 22:47:00,50.9,48.1,29.95,WSW,248,3.1,5.4,90,0.00,,,0.00,WUHU216HW,2013-12-03 06:47:00,
2013-12-02 22:52:00,51.1,48.2,29.95,WSW,248,6.9,6.9,90,0.00,,,0.00,WUHU216HW,2013-12-03 06:52:00,
2013-12-02 22:57:00,51.3,48.4,29.95,West,270,5.8,8.5,90,0.00,,,0.00,WUHU216HW,2013-12-03 06:57:00,
2013-12-02 23:02:00,51.5,48.6,29.95,WNW,293,3.8,8.5,90,0.00,,,0.00,WUHU216HW,2013-12-03 07:02:00,
2013-12-02 23:07:00,51.7,48.8,29.95,West,270,4.0,4.7,90,0.00,,,0.00,WUHU216HW,2013-12-03 07:07:00,
2013-12-02 23:12:00,51.7,48.8,29.95,WSW,248,4.0,4.9,90,0.00,,,0.00,WUHU216HW,2013-12-03 07:12:00,
2013-12-02 23:17:00,51.8,49.2,29.94,WSW,248,4.3,5.1,91,0.00,,,0.00,WUHU216HW,2013-12-03 07:17:00,
2013-12-02 23:22:00,51.8,49.2,29.94,SW,225,4.3,5.1,91,0.00,,,0.00,WUHU216HW,2013-12-03 07:22:00,
2013-12-02 23:27:00,52.2,49.6,29.94,West,270,3.8,5.4,91,0.00,,,0.00,WUHU216HW,2013-12-03 07:27:00,
2013-12-02 23:32:00,52.2,49.6,29.95,WSW,248,3.4,6.5,91,0.00,,,0.00,WUHU216HW,2013-12-03 07:32:00,
2013-12-02 23:37:00,52.4,49.8,29.94,WSW,248,6.5,6.5,91,0.00,,,0.00,WUHU216HW,2013-12-03 07:37:00,
2013-12-02 23:42:00,52.6,50.0,29.94,WSW,248,4.5,6.7,91,0.00,,,0.00,WUHU216HW,2013-12-03 07:42:00,
2013-12-02 23:47:00,52.7,50.1,29.93,WSW,248,7.2,7.2,91,0.00,,,0.00,WUHU216HW,2013-12-03 07:47:00,
2013-12-02 23:52:00,52.9,50.3,29.93,West,270,4.7,7.2,91,0.00,,,0.00,WUHU216HW,2013-12-03 07:52:00,
2013-12-02 23:57:00,52.9,50.3,29.93,NW,315,3.6,6.0,91,0.00,,,0.00,WUHU216HW,2013-12-03 07:57:00,